Location: Allisons_Woods
(35.8920°N, 81.8170°W)
Time: 06:51:53
(UTC-05:00)

Daily predictions for brighter satellites

Satellite Brightness Start Highest point End
(mag) Time Altitude Azimuth Time Altitude Azimuth Time Altitude Azimuth
CZ-3B DEB 2.4 17:32:21 10° WSW 17:35:23 46° NNW 17:42:33 10° NE
USA 32 4.1 17:33:37 10° S 17:38:50 89° ESE 17:44:04 10° N
COSMOS 2487 3.7 17:37:22 10° NNE 17:40:14 22° ENE 17:43:05 10° ESE
Cosmos 1833 Rocket 3.9 17:37:38 10° N 17:41:46 20° ENE 17:45:53 10° ESE
CZ-3A R/B 4.1 17:39:14 10° W 17:43:48 38° NNW 18:03:02 10° NE
Cosmos 2082 Rocket 3.1 17:42:07 10° N 17:46:50 26° ENE 17:51:33 10° ESE
Abrixas 4.5 17:45:26 10° NNW 17:47:12 15° NNE 17:48:58 10° ENE
USA 116 4.5 17:45:54 10° NNE 17:51:16 88° ESE 17:56:16 10° SSW
Cosmos 1544 Rocket 3.9 17:47:32 10° N 17:52:00 75° W 17:56:27 10° S
OTV 4 3.8 17:51:34 10° SW 17:52:37 11° SSW 17:53:40 10° SSW
Cosmos 1743 4.1 17:51:25 10° NNE 17:54:13 19° ENE 17:57:00 10° ESE
Cosmos 1500 3.5 17:52:56 10° N 17:56:37 43° E 18:00:18 10° SSE
COSMO-SKYMED 1 3.4 17:53:32 10° NE 17:57:23 31° E 18:01:15 10° SSE
IDEFIX/ARIANE 42P 2.5 17:53:52 10° SSE 17:59:02 78° ENE 18:04:14 10° N
Cosmos 1484 Rocket 3.6 17:58:24 10° SE 18:01:36 27° ENE 18:04:48 10° NNE
Cosmos 1975 2.7 17:59:57 10° N 18:04:01 73° E 18:08:00 10° SSE
CZ-4 R/B 1.9 18:00:08 10° S 18:04:16 66° WSW 18:08:23 10° NNW
MSX 3.9 17:59:50 10° SSE 18:05:27 60° ENE 18:11:06 10° N
NOSS 2-1 (D) 3.3 18:02:22 10° SSW 18:06:06 59° ESE 18:09:43 12° NE
NOSS 2-1 (C) 3.4 18:03:03 10° SSW 18:06:48 58° ESE 18:10:23 13° NE
ASTRO F (AKARI) 4.1 18:04:38 10° NNE 18:07:46 72° ESE 18:10:55 10° S
Thor Agena Rocket 4.0 18:04:04 10° N 18:09:15 67° WNW 18:14:29 10° SSW
MOS 1 4.5 18:04:26 10° S 18:10:06 79° WSW 18:15:47 10° NNW
Cosmos 1536 Rocket 4.2 18:05:57 10° SSW 18:10:20 59° W 18:14:47 10° N
Cosmos 1025 Rocket 4.0 18:06:52 10° SSE 18:10:31 27° E 18:13:52 12° NE
Cosmos 921 Rocket 3.0 18:07:20 10° S 18:11:29 59° ESE 18:15:44 10° NNE
Meteor 1-13 Rocket 4.3 18:07:10 10° S 18:12:43 61° E 18:18:26 10° NNE
SMAP 3.4 18:09:53 10° S 18:14:30 71° WSW 18:19:09 10° NNW
YAOGAN 1 3.0 18:14:56 10° S 18:19:13 66° WSW 18:23:32 10° NNW
Nadezhda 3 Rocket 3.9 18:14:20 10° S 18:20:30 75° E 18:26:46 10° N
SL-24 DEB 4.3 18:16:32 10° N 18:21:16 88° W 18:25:55 10° S
Meteor 2-4 Rocket 4.0 18:18:53 10° SSE 18:23:52 40° E 18:28:50 10° NNE
Cosmos 2369 Rocket 4.1 18:21:57 10° ESE 18:22:49 11° ESE 18:22:49 11° ESE
Meteor 2-21 Rocket 4.4 18:18:25 10° N 18:24:34 64° E 18:30:38 10° SSE
NOSS 2-1 (E) 3.2 18:21:36 10° SSW 18:25:25 88° ESE 18:28:29 18° NNE
SKYMED 3 4.5 18:23:10 10° NNE 18:27:31 72° E 18:31:50 10° S
GRACE-2 3.7 18:25:59 10° S 18:28:45 76° E 18:31:03 14° N
GRACE-1 3.7 18:26:24 10° S 18:29:10 79° E 18:31:33 13° N
USA 234 4.4 18:37:48 11° NNE 18:43:22 36° NNW 18:49:12 10° W
SKYMED 2 3.8 18:41:12 10° N 18:45:32 69° WNW 18:49:50 10° SSW
Tiangong 1 2.6 18:44:29 10° WNW 18:47:00 24° NNW 18:47:00 24° NNW
Delta 2 Rocket 3.1 18:44:43 10° W 18:48:27 88° S 18:49:28 49° E
NOAA 12 4.2 18:44:11 10° SSE 18:49:16 51° ENE 18:54:22 10° N
Cosmos 2056 Rocket 3.4 18:49:55 10° S 18:55:17 76° ESE 18:58:18 26° NNE
FALCON 9 R/B 3.6 18:29:32 10° W 18:56:06 83° S 19:00:04 32° E
Okean 1-7 Rocket 4.5 18:52:25 10° SSW 18:56:48 50° W 19:01:11 10° N
Cosmos 1892 Rocket 3.6 18:54:23 10° S 18:58:33 54° E 18:58:33 54° E
NOSS 3-4 (A) 3.9 18:53:13 10° NNW 19:00:05 50° NE 19:03:39 29° ESE
NOSS 3-4 (C) 4.0 18:53:20 10° NNW 19:00:11 50° NE 19:03:38 30° ESE
Cosmos 1624 Rocket 4.1 19:03:20 10° SSW 19:08:30 74° WNW 19:11:26 27° N
METEOR-M 4.0 19:03:21 10° SSE 19:08:37 67° ENE 19:13:56 10° N
Cosmos 1666 3.4 19:12:13 44° S 19:12:13 44° S 19:14:57 10° S
Cosmos 1934 Rocket 3.9 19:06:08 10° N 19:12:23 85° E 19:18:42 10° S
Meteor 2-8 Rocket 4.4 19:12:48 10° S 19:18:52 80° W 19:24:52 11° N
GEOS 3 Rocket 3.7 19:23:58 59° NNE 19:23:58 59° NNE 19:28:21 10° NNW
Cosmos 1833 Rocket 3.4 19:20:33 10° NNW 19:26:00 52° WSW 19:31:24 10° S
Okean 2 3.9 19:22:54 10° SSW 19:26:54 58° W 19:26:54 58° W
Cosmos 1606 Rocket 3.9 19:24:13 10° NNW 19:28:39 63° W 19:33:04 10° S
Cosmos 2082 Rocket 3.5 19:25:46 10° NW 19:30:59 39° WSW 19:36:12 10° S
Cosmos 1452 Rocket 4.3 19:39:08 10° SSW 19:42:32 42° SSW 19:42:32 42° SSW
Cosmos 1605 Rocket 4.3 19:47:45 10° NNW 19:53:57 63° W 20:00:01 10° S
Cosmos 2369 Rocket 3.5 20:01:38 10° SSW 20:04:41 33° SSW 20:04:41 33° SSW
ATLAS 3B CENTAUR R/B 4.2 20:35:52 10° W 20:46:08 35° SW 20:46:08 35° SW
